Terminal Aerodrome Forecast
Issued by NWS Portland, ME

Home | Current Version | Previous Version | Text Only | Print | Product List | Glossary On
Versions: 1 2 3 4 5 6 7 8 9 10 11 12 13 14 15 16 17 18 19
000
FTUS41 KGYX 180916 AAA
TAFPWM
TAF AMD
KPWM 180916Z 1809/1906 25004KT P6SM SCT080
     FM181300 13009KT P6SM OVC050
     FM182000 14012KT 5SM -SHRA OVC040
     FM182300 20009KT P6SM SCT040 OVC100=

USA.gov is the U.S. government's official web portal to all federal, state and local government web resources and services.